User: anonymous   Login
Location: Unspecified
(0.0000°N, 0.0000°E)
Time: 04:10:48
(UTC+00:00)
Language:

DSP F14 - Orbit

View from above orbital plane
View from above orbital plane
View from above satellite
View from above satellite

Ground track
Ground track

The orbit data is extracted from the following two-line orbital elements,

1 20066U 89046A   18012.90119143 0.00000000  00000-0  00000-0 0    04
2 20066  14.7320   5.5556 0002563 276.8150  83.1679  0.98818397    01
Epoch (UTC): 12 January 2018 21:37:42
Eccentricity: 0.0002563
inclination: 14.7320°
perigee height: 36188 km
apogee height: 36209 km
right ascension of ascending node: 5.5556°
argument of perigee: 276.8150°
revolutions per day: 0.98818397
mean anomaly at epoch: 83.1679°
orbit number at epoch: 0

The dashed part of the orbit path shows where the satellite is in the earth's shadow,  

DLR